Weather History for KMSL - October, 2012

Change the Weather History Date:

Wednesday, October 24, 2012

  Actual Average Record
Temperature  
Mean Temperature 66 °F 59 °F  
Max Temperature 82 °F 72 °F 88 °F (1939)
Min Temperature 50 °F 47 °F 25 °F (1937)
Degree Days  
Heating Degree Days 0 7  
Month to date heating degree days 88 101  
Since 1 July heating degree days 99 116  
Cooling Degree Days 1 1  
Month to date cooling degree days 32 54  
Year to date cooling degree days 2161 1856  
Growing Degree Days 16 (Base 50)    
Moisture  
Dew Point 52 °F    
Average Humidity 65    
Maximum Humidity 93    
Minimum Humidity 37    
Precipitation  
Precipitation 0.00 in 0.12 in 3.24 in (1986)
Month to date precipitation 2.39 2.58  
Year to date precipitation 35.99 42.01  
Snow  
Snow 0.00 in - - ()
Month to date snowfall 0.0  
Since 1 July snowfall 0.0  
Since 1 September snowfall 0.0  
Snow Depth 0.00 in    
Sea Level Pressure  
Sea Level Pressure 30.09 in    
Wind  
Wind Speed 2 mph (SSE)    
Max Wind Speed 8 mph    
Max Gust Speed 13 mph    
Visibility 10 miles    
Events      
T = Trace of Precipitation, MM = Missing Value Source: NWS Daily Summary

Daily Weather History Graph

Daily Weather History Graph

Search for Another Location

Airport or City:

Trip Planner

Search our weather history database for the weather conditions in past years. The results will help you decide how hot, cold, wet, or windy it might be!

Date:

Astronomy

Oct. 24, 2012 Rise Set
Actual Time 7:04 AM CDT 6:04 PM CDT
Civil Twilight 6:38 AM CDT 6:30 PM CDT
Nautical Twilight 6:08 AM CDT 6:59 PM CDT
Astronomical Twilight 5:39 AM CDT 7:28 PM CDT
Moon 3:10 PM CDT (10/24) 2:10 AM CDT (10/24)
Length of Visible Light 11h 51m
Length of Day
11h 00m
Waxing Gibbous, 76% of the Moon is Illuminated
Oct 24
Waxing Gibbous
Oct 29
Full
Nov 6
Last Quarter
Nov 13
New
Nov 20
First Quarter

Hourly Weather History & Observations

Time (CDT) Temp. Heat Index Dew Point Humidity Pressure Visibility Wind Dir Wind Speed Gust Speed Precip Events Conditions
12:53 AM 54.0 °F - 51.1 °F 90% 30.10 in 10.0 mi Calm Calm - N/A   Clear
1:53 AM 53.1 °F - 50.0 °F 89% 30.10 in 10.0 mi Calm Calm - N/A   Clear
2:53 AM 54.0 °F - 50.0 °F 86% 30.10 in 10.0 mi ESE 3.5 mph - N/A   Clear
3:53 AM 52.0 °F - 48.9 °F 89% 30.11 in 8.0 mi Calm Calm - N/A   Clear
4:53 AM 53.1 °F - 48.9 °F 86% 30.12 in 10.0 mi ENE 3.5 mph - N/A   Clear
5:53 AM 51.1 °F - 48.0 °F 89% 30.14 in 9.0 mi Calm Calm - N/A   Clear
6:53 AM 50.0 °F - 46.9 °F 89% 30.15 in 5.0 mi Calm Calm - N/A   Clear
7:53 AM 53.1 °F - 50.0 °F 89% 30.16 in 7.0 mi Calm Calm - N/A   Clear
8:53 AM 60.1 °F - 52.0 °F 75% 30.16 in 10.0 mi ESE 3.5 mph - N/A   Clear
9:53 AM 66.9 °F - 52.0 °F 59% 30.17 in 10.0 mi Calm Calm - N/A   Clear
10:53 AM 73.0 °F - 52.0 °F 48% 30.15 in 10.0 mi Calm Calm - N/A   Clear
11:53 AM 78.1 °F - 53.1 °F 42% 30.13 in 10.0 mi Calm Calm - N/A   Clear
12:53 PM 80.1 °F 80.1 °F 55.0 °F 42% 30.09 in 10.0 mi Calm Calm - N/A   Clear
1:53 PM 80.1 °F 80.0 °F 54.0 °F 40% 30.07 in 10.0 mi West 5.8 mph - N/A   Clear
2:53 PM 82.0 °F 81.3 °F 54.0 °F 38% 30.05 in 10.0 mi SW 8.1 mph - N/A   Clear
3:53 PM 81.0 °F 80.5 °F 54.0 °F 39% 30.05 in 10.0 mi South 4.6 mph - N/A   Clear
4:53 PM 81.0 °F 80.5 °F 54.0 °F 39% 30.04 in 10.0 mi Calm Calm - N/A   Clear
5:53 PM 75.0 °F - 55.0 °F 50% 30.04 in 10.0 mi Calm Calm - N/A   Clear
6:53 PM 68.0 °F - 55.0 °F 63% 30.05 in 10.0 mi Calm Calm - N/A   Clear
7:53 PM 64.9 °F - 54.0 °F 68% 30.06 in 10.0 mi SE 3.5 mph - N/A   Clear
8:53 PM 63.0 °F - 54.0 °F 72% 30.06 in 10.0 mi SE 3.5 mph - N/A   Clear
9:53 PM 61.0 °F - 54.0 °F 78% 30.06 in 10.0 mi SE 4.6 mph - N/A   Clear
10:53 PM 59.0 °F - 53.1 °F 81% 30.06 in 10.0 mi Calm Calm - N/A   Clear
11:53 PM 57.0 °F - 53.1 °F 87% 30.05 in 10.0 mi Calm Calm - N/A   Clear